Regional Weather Roundup
Issued by NWS Goodland, KS

Home | Current Version | Previous Version | Graphics & Text | Print | Product List | Glossary On
Versions: 1 2 3 4 5 6 7 8 9 10 11 12 13 14 15 16 17 18 19 20 21 22 23 24 25 26 27 28 29 30 31 32 33 34 35 36 37 38 39 40 41 42 43 44 45 46 47 48 49 50
000
ASUS43 KGLD 241859
RWRGLD

GOODLAND FORECAST AREA HOURLY WEATHER ROUNDUP
NATIONAL WEATHER SERVICE GOODLAND KS
100 PM MDT TUE MAY 24 2016

...OFFICIAL OBSERVATIONS...

CITY           SKY/WX    TMP DP  RH WIND       PRES   REMARKS
GOODLAND KS    CLOUDY    71  58  63 SE18G29   29.91F
HILL CITY KS   CLOUDY    74  58  57 SE16G24   29.90F
IMPERIAL NEB   SUNNY     75  54  47 SE23G29   29.90F
MCCOOK NEB     PTSUNNY   75  58  55 S15G24    29.90F
AKRON CO       MOSUNNY   72  52  49 SE25G32   29.92F
BURLINGTON CO  CLOUDY    71  56  58 SE21      29.92F
LIMON CO       PTSUNNY   67  52  58 S17G24    29.96F
$$

...UNOFFICIAL OBSERVATIONS...

CITY           SKY/WX    TMP DP  RH WIND       PRES   REMARKS
COLBY KS       CLOUDY    70  63  78 SE21      29.93S
GOVE KS          N/A     72  32  23 MISG        N/A
LENORA KS        N/A     71  32  23 MISG        N/A
NORTON KS      SUNNY     73  54  49 SE13G20   29.90F
SHARON SPRINGS   N/A     72  64  75 SW9G20      N/A
KIT CARSON CO    N/A     71  57  61 MISG        N/A
$$




USA.gov is the U.S. government's official web portal to all federal, state and local government web resources and services.